This demonstration page uses our WeatherBlox Daily Observations layout. Learn more.

Left ArrowRight Arrow

Hourly Observations for January 10, 2018

Temp ( °F °C ) Dew Point ( °F °C ) Humidity (%) Winds ( mph kmh ) Pressure ( in mb ) Visibility ( mi km ) Precip ( " mm )
12:56 am 00:56 Clear 32 0 27 -2.8 82 82 Calm 29.65 1004 10 16 0.00 0.00
1:56 am 01:56 Clear 33 0.6 27 -2.8 78 78 SSW 9 15 29.62 1003 10 16 0.00 0.00
2:56 am 02:56 Clear 33 0.6 27 -2.8 78 78 SSW 9 15 29.60 1002 10 16 0.00 0.00
3:56 am 03:56 Clear 33 0.6 29 -1.7 85 85 S 10 17 29.59 1002 10 16 0.00 0.00
4:56 am 04:56 Clear 31 -0.6 29 -1.7 92 92 S 6 9 29.58 1002 10 16 0.00 0.00
5:56 am 05:56 Clear 28 -2.2 26 -3.3 92 92 SSE 5 7 29.57 1002 10 16 0.00 0.00
6:56 am 06:56 Clear 26 -3.3 25 -3.9 96 96 SE 7 11 29.57 1001 8 13 0.00 0.00
7:12 am 07:12 Partly Cloudy with Mist and Fog 27 -3 27 -3 100 100 SE 8 13 29.59 1002 6 10 0.00 0.00
7:21 am 07:21 Mostly Cloudy with Mist and Fog 28 -2 27 -3 93 93 SSE 7 11 29.62 1003 6 10 0.00 0.00
7:30 am 07:30 Cloudy with Mist and Fog 28 -2 28 -2 100 100 SSE 6 9 29.62 1003 4 6 0.00 0.00
7:33 am 07:33 Cloudy with Mist and Fog 28 -2 28 -2 100 100 SSE 7 11 29.62 1003 2 3 0.00 0.00
7:37 am 07:37 Cloudy with Mist and Fog 30 -1 28 -2 93 93 SSE 10 17 29.59 1002 1 1 0.00 0.00
7:43 am 07:43 Cloudy with Light Snow 30 -1 30 -1 100 100 SSE 10 17 29.59 1002 0 0 0.00 0.00
7:56 am 07:56 Cloudy with Light Wintry Mix 31 -0.6 30 -1.1 96 96 S 8 13 29.55 1001 0 0 0.00 0.03
8:56 am 08:56 Cloudy with Light Wintry Mix 32 0 31 -0.6 96 96 S 6 9 29.55 1001 0 0 0.00 0.03
9:56 am 09:56 Cloudy with Light Rain 34 1.1 34 1.1 100 100 S 6 9 29.53 1000 0 0 0.00 0.03
10:36 am 10:36 Cloudy with Light Rain 36 2 36 2 100 100 S 9 15 29.56 1001 1 1 0.00 0.03
10:53 am 10:53 Cloudy with Light Rain 36 2 36 2 100 100 SSE 12 19 29.56 1001 1 2 0.00 0.00
11:04 am 11:04 Cloudy with Mist and Fog 36 2 36 2 100 100 SSE 10 17 29.56 1001 2 2 0.00 0.00
11:17 am 11:17 Cloudy with Mist and Fog 36 2 36 2 100 100 S 10 17 29.56 1001 3 4 0.00 0.00
11:31 am 11:31 Cloudy with Mist and Fog 37 3 36 2 93 93 S 7 11 29.53 1000 3 5 0.00 0.00
11:56 am 11:56 Cloudy with Mist and Fog 37 2.8 37 2.8 100 100 SSW 6 9 29.49 999 4 6 0.00 0.00
12:21 pm 12:21 Cloudy with Mist and Fog 37 3 37 3 100 100 SSW 8 13 29.53 1000 6 10 0.00 0.00
12:56 pm 12:56 Cloudy 39 3.9 36 2.2 89 89 W 5 7 29.45 997 8 13 0.00 0.00
1:39 pm 13:39 Mostly Cloudy 43 6 36 2 76 76 VRB 3 6 29.47 998 9 14 0.00 0.00
1:47 pm 13:47 Partly Cloudy 43 6 36 2 76 76 Calm 29.47 998 9 14 0.00 0.00
1:56 pm 13:56 Mostly Sunny 43 6.1 36 2.2 76 76 SSW 5 7 29.41 996 10 16 0.00 0.00
2:56 pm 14:56 Sunny 43 6.1 36 2.2 76 76 SSE 3 6 29.40 996 10 16 0.00 0.00
3:56 pm 15:56 Sunny 43 6.1 36 2.2 76 76 SSE 3 6 29.42 996 10 16 0.00 0.00
4:56 pm 16:56 Sunny 41 5 35 1.7 79 79 Calm 29.43 997 10 16 0.00 0.00
5:56 pm 17:56 Clear 40 4.4 35 1.7 83 83 NNW 9 15 29.47 998 10 16 0.00 0.00
6:56 pm 18:56 Clear 37 2.8 34 1.1 89 89 NNW 7 11 29.49 999 10 16 0.00 0.00
7:56 pm 19:56 Clear 36 2.2 33 0.6 89 89 NNE 10 17 29.54 1001 10 16 0.00 0.00
8:42 pm 20:42 Mostly Cloudy 37 3 34 1 87 87 N 32 52 29.62 1003 10 16 0.00 0.00
8:56 pm 20:56 Cloudy 36 2.2 32 0 86 86 N 28 44 29.61 1003 10 16 0.00 0.00
9:42 pm 21:42 Cloudy 34 1 30 -1 87 87 N 33 54 29.71 1006 7 11 0.00 0.00
9:56 pm 21:56 Cloudy with Mist and Fog 32 0 29 -1.7 88 88 N 28 44 29.67 1005 5 8 0.00 0.00
10:27 pm 22:27 Cloudy 28 -2 25 -4 86 86 N 33 54 29.80 1009 10 16 0.00 0.00
10:43 pm 22:43 Cloudy 27 -3 18 -8 69 69 N 36 57 29.80 1009 10 16 0.00 0.00
10:56 pm 22:56 Cloudy 25 -3.9 18 -7.8 75 75 N 26 43 29.75 1008 10 16 0.00 0.00
11:56 pm 23:56 Cloudy 22 -5.6 14 -10 71 71 N 28 44 29.80 1009 10 16 0.00 0.00

Powered by AerisWeather